Location: Ermatingen
(47.6706°N, 9.0857°E)
Time: 03:02:00
(UTC+00:00)

Meteor 2-5 Rocket - Pass Details

Date: 18 September 2020
Orbit: 833 x 912 km, 81.2° (Epoch: 24 October)

Event Time Altitude Azimuth Distance (km) Brightness Sun altitude
Rises 20:21:21 0° 344° (NNW) 3,415 7.6 -27.7°
Reaches altitude 10° 20:23:48 10° 340° (NNW) 2,484 6.9 -28.1°
Maximum altitude 20:29:14 52° 265° (W) 1,064 4.3 -28.8°
Enters shadow 20:30:29 44° 226° (SW) 1,184 4.4 -28.9°
